Regional Weather Roundup
Issued by NWS

Home | Current Version | Previous Version | Text Only | Print | Product List | Glossary On
Versions: 1 2 3 4 5 6 7 8 9 10 11 12 13 14 15 16 17 18 19 20 21 22 23 24 25 26 27 28 29 30 31 32 33 34 35 36 37 38 39 40 41 42 43 44 45 46 47 48 49 50
000
ASUS44 KMEG 290110
RWRTN
TENNESSEE HOURLY STATE WEATHER ROUNDUP
NATIONAL WEATHER SERVICE MEMPHIS TN
800 PM CDT SUN AUG 28 2016

TNZ002-004-019-021-049-052-054-088>092-290200-
WEST TENNESSEE

CITY           SKY/WX    TMP DP  RH WIND       PRES   REMARKS
MEMPHIS INTL   PTCLDY    89  67  47 E6        30.04R HX  92
NWS MEMPHIS      N/A     82 N/A N/A MISG        N/A
JACKSON        CLEAR     80  76  87 CALM      30.06R
DYERSBURG      CLEAR     86  73  66 MISG      30.05R HX  93
UNION CITY     CLEAR     82  75  78 CALM      30.06R
PARIS          CLEAR     77  73  88 CALM      30.09S
LEXINGTON      CLEAR     81  75  83 CALM      30.07R
$$

TNZ008-025-027-028-033-062-065-066-290200-
NORTH MIDDLE TENNESSEE

CITY           SKY/WX    TMP DP  RH WIND       PRES   REMARKS
NASHVILLE      PTCLDY    81  72  74 E3        30.11R
CLARKSVILLE    CLEAR     83  73  72 NE6       30.09R
COOKEVILLE     PTCLDY    77  70  78 E12       30.15R
CROSSVILLE     TSTM      70  67  90 W6        30.20F
$$

TNZ061-075-076-078-094-096-097-290200-
SOUTH MIDDLE TENNESSEE

CITY           SKY/WX    TMP DP  RH WIND       PRES   REMARKS
FAYETTEVILLE   PTCLDY    77  68  73 NE5       30.11R
TULLAHOMA        N/A     77  66  69 CALM      30.14R
WINCHESTER     CLEAR     72  70  94 SE3       30.13R
MCMINNVILLE    PTCLDY    73  73 100 E3        30.14R
COLUMBIA       CLEAR     79  79 100 CALM      30.09R
SHELBYVILLE    CLEAR     79  75  89 NE6       30.12R
$$

TNZ017-018-042-046-047-290200-
NORTHEAST TENNESSEE

CITY           SKY/WX    TMP DP  RH WIND       PRES   REMARKS
TRI CITIES     MOCLDY    77  71  82 CALM      30.16R
ELIZABETHTON     N/A     77  68  73 CALM      30.17R
$$

TNZ012-013-036-069-073-074-290200-
CENTRAL EAST TENNESSEE

CITY           SKY/WX    TMP DP  RH WIND       PRES   REMARKS
KNOXVILLE      CLOUDY    77  67  71 NE6       30.10S
OAK RIDGE      MOCLDY    74  69  85 CALM      30.14R
GATLINBURG     CLEAR     73  70  88 W3        30.12R
MORRISTOWN     PTCLDY    77  70  78 CALM      30.13R
$$

TNZ083-085-099-290200-
SOUTHEAST TENNESSEE

CITY           SKY/WX    TMP DP  RH WIND       PRES   REMARKS
CHATTANOOGA    CLOUDY    77  73  87 CALM      30.11R
$$

SKY/WX REPORTED AS FAIR MEANS FEW OR NO CLOUDS BELOW
12 THOUSAND FEET.





USA.gov is the U.S. government's official web portal to all federal, state and local government web resources and services.